KD2GO Weather Reports


time (UTC)temp
C
wind
direction
speed
KPH
gust
KPH
rain 1hr
cm
rain 24hr
cm
rain mn
cm
humidity
%
barometer
mb
20260510041459 10 121 0.0 0.0 0.00 0.84 0.00 40 1010.7
20260510040005 10 121 0.0 0.0 0.00 0.84 0.00 40 1010.9
20260510034500 10 121 1.6 3.2 0.00 0.84 0.84 38 1010.9
20260510033001 10 121 0.0 0.0 0.00 0.84 0.84 42 1010.7
20260510031500 10 121 0.0 0.0 0.00 0.84 0.84 43 1010.6
20260510024501 10 121 0.0 1.6 0.00 0.84 0.84 42 1010.5
20260510023001 10 121 0.0 0.0 0.00 0.84 0.84 46 1010.5
20260510021501 10 121 0.0 1.6 0.00 0.84 0.84 47 1010.5
20260510020003 10 121 0.0 0.0 0.00 0.84 0.84 50 1010.5
20260510014500 10 121 0.0 0.0 0.00 0.84 0.84 50 1010.5
20260510012959 10 121 0.0 1.6 0.00 0.84 0.84 51 1010.5
20260510011500 10 121 1.6 3.2 0.00 0.84 0.84 53 1010.4
20260510010001 11 121 1.6 6.4 0.00 0.84 0.84 52 1010.3
20260510004459 11 121 3.2 4.8 0.00 0.84 0.84 54 1010.1
20260510001459 11 121 3.2 8.0 0.00 0.84 0.84 57 1009.6
20260509235959 11 107 4.8 6.4 0.00 0.84 0.84 61 1009.7
20260509234459 12 124 3.2 6.4 0.00 0.84 0.84 64 1009.7
20260509232959 12 72 1.6 8.0 0.00 0.84 0.84 68 1009.6
20260509231459 12 119 1.6 4.8 0.00 0.84 0.84 71 1009.6
20260509224500 12 110 3.2 4.8 0.00 0.84 0.84 79 1009.6
20260509223001 13 1 1.6 3.2 0.00 0.84 0.84 82 1009.6
20260509221501 12 348 0.0 3.2 0.00 0.84 0.84 80 1009.6
20260509220000 12 326 0.0 1.6 0.03 0.84 0.84 81 1009.5
20260509214459 12 326 1.6 3.2 0.03 0.84 0.84 79 1009.5
20260509212959 12 359 3.2 9.7 0.03 0.84 0.84 76 1009.6
20260509211459 12 289 4.8 12.9 0.05 0.84 0.84 73 1009.8
20260509210002 12 283 3.2 8.0 0.10 0.81 0.81 53 1009.8
20260509203000 11 314 0.0 1.6 0.20 0.81 0.81 60 1009.7
20260509201501 11 314 1.6 4.8 0.23 0.79 0.79 63 1010.1
20260509200001 11 314 0.0 3.2 0.20 0.71 0.71 60 1009.9
20260509191500 11 316 4.8 9.7 0.28 0.56 0.56 65 1011.0
20260509190001 11 275 3.2 11.3 0.25 0.51 0.51 68 1010.9
20260509184459 11 301 4.8 17.7 0.25 0.43 0.43 69 1011.1
20260509182959 11 330 3.2 11.3 0.23 0.36 0.36 69 1011.3
20260509181459 12 305 1.6 4.8 0.20 0.28 0.28 73 1011.3
20260509180000 12 285 3.2 8.0 0.20 0.23 0.23 77 1011.0
20260509174459 12 312 0.0 3.2 0.15 0.18 0.18 79 1011.0
20260509171458 12 336 1.6 6.4 0.08 0.08 0.08 84 1011.3
20260509170001 13 232 1.6 4.8 0.03 0.03 0.03 85 1011.5
20260509164459 13 283 3.2 9.7 0.03 0.03 0.03 85 1011.2
20260509162959 13 311 4.8 16.1 0.03 0.03 0.03 83 1011.5
20260509160001 13 303 3.2 6.4 0.00 0.00 0.00 85 1011.6
20260509154459 13 330 1.6 6.4 0.00 0.00 0.00 84 1011.6
20260509153000 13 147 1.6 4.8 0.00 0.00 0.00 85 1011.6
20260509151459 13 114 1.6 6.4 0.00 0.00 0.00 84 1011.6
20260509150001 12 224 0.0 1.6 0.00 0.00 0.00 85 1011.6
20260509142959 12 192 1.6 6.4 0.00 0.00 0.00 84 1011.6
20260509141459 12 129 3.2 4.8 0.00 0.00 0.00 84 1011.6
20260509140001 12 133 3.2 8.0 0.00 0.00 0.00 83 1011.5
20260509134500 12 71 3.2 6.4 0.00 0.00 0.00 82 1011.4
20260509132959 12 131 1.6 4.8 0.00 0.00 0.00 82 1011.3
20260509131458 11 127 3.2 6.4 0.00 0.00 0.00 82 1011.4
20260509130000 11 207 3.2 6.4 0.00 0.00 0.00 82 1011.6
20260509124459 11 123 4.8 8.0 0.00 0.00 0.00 81 1011.6
20260509122958 11 124 6.4 9.7 0.00 0.00 0.00 80 1011.7
20260509121458 11 119 3.2 6.4 0.00 0.00 0.00 81 1011.5
20260509115958 11 119 3.2 6.4 0.00 0.00 0.00 80 1011.6
20260509114458 11 120 3.2 6.4 0.00 0.00 0.00 80 1011.5
20260509112958 11 112 3.2 9.7 0.00 0.00 0.00 79 1011.6
20260509111458 11 110 4.8 9.7 0.00 0.00 0.00 79 1011.4
20260509105957 11 117 4.8 8.0 0.00 0.00 0.00 80 1011.6
20260509102959 11 328 1.6 4.8 0.00 0.00 0.00 79 1011.2
20260509101458 11 323 0.0 1.6 0.00 0.00 0.00 77 1011.3
20260509092957 11 11 1.6 3.2 0.00 0.00 0.00 74 1011.2
20260509090000 11 11 0.0 1.6 0.00 0.00 0.00 73 1011.3
20260509084458 11 11 1.6 3.2 0.00 0.00 0.00 74 1011.5
20260509081458 11 61 1.6 3.2 0.00 0.00 0.00 73 1011.6
20260509075958 11 61 1.6 3.2 0.00 0.00 0.00 73 1011.6
20260509074458 10 61 0.0 0.0 0.00 0.00 0.00 74 1011.8
20260509072957 11 61 0.0 3.2 0.00 0.00 0.00 73 1011.5
20260509065958 10 305 0.0 3.2 0.00 0.03 0.00 77 1011.6
20260509064457 10 305 0.0 0.0 0.00 0.03 0.00 78 1011.7
20260509062958 10 305 0.0 3.2 0.00 0.03 0.00 77 1011.8
20260509061457 11 305 0.0 4.8 0.00 0.03 0.00 75 1012.1
20260509060000 12 25 0.0 1.6 0.00 0.03 0.00 73 1011.9
20260509054457 12 25 1.6 3.2 0.00 0.03 0.00 68 1011.9
20260509052958 12 25 0.0 3.2 0.00 0.03 0.00 66 1011.9
20260509050001 11 25 0.0 0.0 0.00 0.03 0.00 70 1012.7
20260509044500 11 25 0.0 3.2 0.00 0.03 0.00 69 1012.7